Regional Weather Roundup
Issued by NWS

Home | Current Version | Previous Version | Graphics & Text | Print | Product List | Glossary On
Versions: 1 2 3 4 5 6 7 8 9 10 11 12 13 14 15 16 17 18 19 20 21 22 23 24 25 26 27 28 29 30 31 32 33 34 35 36 37 38 39 40 41 42 43 44 45 46 47 48 49 50
000
ASUS43 KOAX 200910
RWRNE

WEATHER ROUNDUP FOR NEBRASKA
NATIONAL WEATHER SERVICE OMAHA NE
400 AM CDT WED SEP 20 2017

NOTES: SATELLITE DATA IS BEING USED TO AUGMENT CLOUD COVER ABOVE
       12000 FEET.
       "FAIR" INDICATES FEW OR NO CLOUDS BELOW 12,000 FEET WITH NO
       SIGNIFICANT WEATHER AND/OR OBSTRUCTIONS TO VISIBILITY.


NEZ001>004-019>022-054>056-201000-
NEBRASKA PANHANDLE

CITY           SKY/WX    TMP DP  RH WIND       PRES   REMARKS
SCOTTSBLUFF    CLOUDY    53  30  41 W13       29.87S
ALLIANCE       CLOUDY    52  33  48 W17       29.83R
CHADRON        CLOUDY    42  33  70 SW6       29.83R
GORDON         FAIR      51  35  55 W9        29.81R
KIMBALL        CLOUDY    53  28  38 NW25G37   29.87S
SIDNEY         CLEAR     53  29  39 NW14      29.88R
$$

NEZ057>060-069>072-079>082-201000-
SOUTHWEST NEBRASKA

CITY           SKY/WX    TMP DP  RH WIND       PRES   REMARKS
NORTH PLATTE   CLEAR     45  41  86 NW8       29.84R
IMPERIAL       CLOUDY    49  33  54 NW7       29.88R
LEXINGTON      CLEAR     49  45  85 W8        29.82R
MCCOOK         CLOUDY    50  36  58 W9        29.84R
OGALLALA       CLEAR     47  35  62 CALM      29.86S
$$

NEZ005>010-023>029-035>040-094-201000-
NORTH CENTRAL NEBRASKA

CITY           SKY/WX    TMP DP  RH WIND       PRES   REMARKS
VALENTINE      CLOUDY    53  47  79 SE5       29.80R
AINSWORTH      MOCLDY    52  47  84 NW3       29.82R
BROKEN BOW     PTCLDY    55  43  63 N8        29.80R
O`NEILL        CLEAR     54  49  85 NW9       29.78R
ORD            CLEAR     50  46  86 NW7       29.76R
THEDFORD       CLEAR     47  42  82 CALM      29.84R
$$

NEZ041-046>049-061>064-073>077-083>087-201000-
SOUTH CENTRAL NEBRASKA

CITY           SKY/WX    TMP DP  RH WIND       PRES   REMARKS
GRAND ISLAND   PTCLDY    59  51  75 NW9       29.75R
AURORA         CLEAR     60  49  66 NW7       29.73R
HASTINGS       CLEAR     58  49  72 N9        29.76R
HEBRON         CLEAR     66  53  61 NW5       29.69R
HOLDREGE       CLEAR     51  47  84 NW7       29.79R
KEARNEY        CLEAR     56  49  77 NW7       29.78R
YORK           CLEAR     63  50  63 N6        29.71R
$$

NEZ011>018-030>034-042>045-201000-
NORTHEAST NEBRASKA

CITY           SKY/WX    TMP DP  RH WIND       PRES   REMARKS
NORFOLK        PTCLDY    59  53  80 N5        29.72R
ALBION         CLEAR     56  51  82 N5        29.75R
BLAIR          MOCLDY    76  71  84 S5        29.65S
COLUMBUS       CLEAR     63  52  67 N10       29.70R
FREMONT        CLOUDY    67  56  66 N10G20    29.68R
TEKAMAH        MOCLDY    65  56  72 N9        29.66S
WAYNE          CLOUDY    61  58  91 CALM      29.71R
$$

NEZ050>053-065>068-078-088>093-201000-
SOUTHEAST NEBRASKA

CITY           SKY/WX    TMP DP  RH WIND       PRES   REMARKS
LINCOLN        CLEAR     77  68  73 W8        29.64R
OMAHA EPPLEY   MOCLDY    75  69  81 SE8       29.64R
BEATRICE       CLEAR     77  71  80 S9        29.64F
FALLS CITY     CLOUDY    78  69  73 S18G28    29.64S
NEBRASKA CITY  PTCLDY    76  73  88 SW9       29.67R
PLATTSMOUTH    CLEAR     75  71  86 S8        29.65S
$$

NEZ044-045-051>053-067-201000-
OMAHA AREA

CITY           SKY/WX    TMP DP  RH WIND       PRES   REMARKS
OMAHA EPPLEY   MOCLDY    75  69  81 SE8       29.64R
BLAIR          MOCLDY    76  71  84 S5        29.65S
FREMONT        CLOUDY    67  56  66 N10G20    29.68R
MILLARD        MOCLDY    78  72  81 SE3       29.64R
OFFUTT AFB     CLEAR     75  70  85 S6        29.63S
PLATTSMOUTH    CLEAR     75  71  86 S8        29.65S
WAHOO          CLOUDY    69  58  66 N14G23    29.66R
$$




USA.gov is the U.S. government's official web portal to all federal, state and local government web resources and services.